TimePDT,TemperatureF,Dew PointF,Humidity,Sea Level PressureIn,VisibilityMPH,Wind Direction,Wind SpeedMPH,Gust SpeedMPH,PrecipitationIn,Events,Conditions,WindDirDegrees,DateUTC
12:27 AM,46.4,46.4,100,30.04,10.0,Calm,Calm,-,N/A,,Overcast,0,2013-03-26 07:27:00
12:56 AM,45.9,45.9,100,30.04,10.0,Variable,3.5,-,N/A,,Overcast,0,2013-03-26 07:56:00
1:56 AM,45.9,45.9,100,30.04,10.0,Calm,Calm,-,N/A,,Overcast,0,2013-03-26 08:56:00
2:08 AM,46.4,46.4,100,30.03,10.0,Calm,Calm,-,N/A,,Overcast,0,2013-03-26 09:08:00
2:56 AM,45.9,45.9,100,30.03,10.0,Variable,3.5,-,N/A,,Overcast,0,2013-03-26 09:56:00
3:56 AM,45.9,45.9,100,30.03,10.0,Variable,4.6,-,N/A,,Overcast,0,2013-03-26 10:56:00
4:56 AM,45.9,45.9,100,30.02,10.0,Calm,Calm,-,N/A,,Overcast,0,2013-03-26 11:56:00
5:24 AM,46.4,46.4,100,30.01,10.0,Calm,Calm,-,N/A,,Overcast,0,2013-03-26 12:24:00
5:56 AM,43.9,43.9,100,30.01,10.0,ENE,3.5,-,N/A,,Mostly Cloudy,70,2013-03-26 12:56:00
6:05 AM,44.6,44.6,100,30.00,10.0,ENE,3.5,-,N/A,,Scattered Clouds,70,2013-03-26 13:05:00
6:56 AM,43.0,43.0,100,30.02,10.0,Calm,Calm,-,N/A,,Mostly Cloudy,0,2013-03-26 13:56:00
7:56 AM,41.9,41.9,100,30.01,10.0,NNE,3.5,-,N/A,,Clear,30,2013-03-26 14:56:00
8:56 AM,45.9,45.9,100,30.01,10.0,Calm,Calm,-,N/A,,Partly Cloudy,0,2013-03-26 15:56:00
9:56 AM,48.9,47.8,96,30.02,10.0,WNW,4.6,-,N/A,,Mostly Cloudy,300,2013-03-26 16:56:00
10:56 AM,52.9,50.0,90,30.02,10.0,Calm,Calm,-,N/A,,Clear,0,2013-03-26 17:56:00
11:56 AM,54.9,43.9,66,30.02,10.0,Variable,4.6,-,N/A,,Clear,0,2013-03-26 18:56:00
12:56 PM,57.9,43.9,60,30.01,10.0,Calm,Calm,-,N/A,,Partly Cloudy,0,2013-03-26 19:56:00
1:56 PM,57.9,43.9,60,30.00,10.0,WNW,3.5,-,N/A,,Partly Cloudy,300,2013-03-26 20:56:00
2:56 PM,61.0,45.0,56,29.98,10.0,Variable,5.8,-,N/A,,Partly Cloudy,0,2013-03-26 21:56:00
3:56 PM,57.9,43.9,60,29.97,10.0,WNW,5.8,-,N/A,,Scattered Clouds,300,2013-03-26 22:56:00
4:56 PM,55.9,45.9,69,29.98,10.0,WNW,3.5,-,N/A,,Mostly Cloudy,290,2013-03-26 23:56:00
5:56 PM,56.8,43.0,60,29.96,10.0,WNW,3.5,-,N/A,,Scattered Clouds,290,2013-03-27 00:56:00
6:56 PM,50.0,50.0,100,29.97,9.0,SSW,3.5,-,N/A,,Mostly Cloudy,210,2013-03-27 01:56:00
7:56 PM,50.0,50.0,100,29.97,10.0,SSW,3.5,-,N/A,,Overcast,200,2013-03-27 02:56:00
8:56 PM,48.9,48.9,100,29.97,10.0,ESE,3.5,-,N/A,,Overcast,110,2013-03-27 03:56:00
9:56 PM,47.8,47.8,100,29.98,9.0,East,3.5,-,N/A,,Mostly Cloudy,100,2013-03-27 04:56:00
10:56 PM,46.9,46.9,100,29.97,10.0,Calm,Calm,-,N/A,,Partly Cloudy,0,2013-03-27 05:56:00
11:56 PM,47.8,47.8,100,29.96,5.0,Calm,Calm,-,0.01,Rain,Light Rain,0,2013-03-27 06:56:00